Погода в Кирьят-Шмона

Израиль     33°12′45″N   35°34′26″E
темп.,
°C
ветер,
м/с
пор.,
м/с
влажн.,
%
обл.,
%
осадки,
мм/ч
давл.,
гПа
погр.,
м
15 мая, сб
сб1500:00+14зсз22800 0.0 101513
03:00+13зсз22860 0.0 101411
06:00+13зсз11850 0.0 101410
09:00+21зсз22450 0.0 1014473
12:00+26зсз43360 0.0 1013982
15:00+24сз65440 0.0 1012654
18:00+21сз34450 0.0 1012420
21:00+15зсз22725 0.0 101212
16 мая, вс
вс1600:00+13сз11845 0.0 101211
03:00+14зсз22555 0.0 101011
06:00+13зсз11670 0.0 101111
09:00+22зсз22250 0.0 1011465
12:00+25зсз76304 0.0 1010920
15:00+25зсз7732100 0.0 1010774
18:00+22сз554097 0.0 1009460
21:00+17зсз2254100 0.0 100912
17 мая, пн
пн1700:00+17сз113864 0.0 100911
03:00+15зсз22470 0.0 100911
06:00+15зсз22630 0.0 101012
09:00+22зсз22410 0.0 1011555
12:00+25зсз76360 0.0 10111165
15:00+24зсз66420 0.0 1011878
18:00+21сз55560 0.0 1011583
21:00+15зсз22920 0.0 101325
18 мая, вт
вт1800:00+14зсз32920 0.0 101323
03:00+13зсз22930 0.0 101312
06:00+13зсз11920 0.0 101411
09:00+21зсз10450 0.0 1014470
12:00+26сз53340 0.0 10131048
15:00+25сз65450 0.0 1013684
18:00+22сз34480 0.0 1012417
21:00+17зсз22790 0.0 101320
19 мая, ср
ср1900:00+16зсз22810 0.0 101314
03:00+15зсз11790 0.0 101211
06:00+16сз01710 0.0 101211
09:00+25юз01350 0.0 1012465
12:00+30зсз32290 0.0 10111021
15:00+28сз64400 0.0 1011617
18:00+24сз44490 0.0 1010346
21:00+18зсз32800 0.0 101130